TimeMST,TemperatureF,Dew PointF,Humidity,Sea Level PressureIn,VisibilityMPH,Wind Direction,Wind SpeedMPH,Gust SpeedMPH,PrecipitationIn,Events,Conditions,WindDirDegrees,DateUTC
12:55 AM,5.0,-0.9,76,30.74,10.0,West,4.6,-,N/A,,Clear,280,2012-01-02 07:55:00
1:55 AM,6.1,-0.0,76,30.74,10.0,West,6.9,-,N/A,,Clear,270,2012-01-02 08:55:00
2:55 AM,7.0,1.0,77,30.73,10.0,West,6.9,-,N/A,,Clear,280,2012-01-02 09:55:00
3:55 AM,3.0,-2.0,80,30.72,10.0,West,5.8,-,N/A,,Clear,270,2012-01-02 10:55:00
4:55 AM,5.0,-0.0,80,30.71,10.0,West,5.8,-,N/A,,Clear,270,2012-01-02 11:55:00
5:55 AM,6.1,1.0,80,30.70,10.0,West,3.5,-,N/A,,Clear,260,2012-01-02 12:55:00
6:55 AM,3.9,-0.0,84,30.69,10.0,Calm,Calm,-,N/A,,Clear,0,2012-01-02 13:55:00
7:55 AM,5.0,-0.0,80,30.73,10.0,Calm,Calm,-,N/A,,Clear,0,2012-01-02 14:55:00
8:55 AM,10.0,5.0,80,30.72,10.0,West,3.5,-,N/A,,Clear,260,2012-01-02 15:55:00
9:55 AM,16.0,10.0,77,30.71,10.0,Calm,Calm,-,N/A,,Clear,0,2012-01-02 16:55:00
10:55 AM,27.0,16.0,63,30.64,10.0,ESE,3.5,-,N/A,,Clear,110,2012-01-02 17:55:00
11:55 AM,33.1,12.0,42,30.57,10.0,SSE,11.5,-,N/A,,Clear,160,2012-01-02 18:55:00
12:55 PM,35.1,12.0,39,30.53,10.0,SSE,12.7,-,N/A,,Clear,150,2012-01-02 19:55:00
1:55 PM,37.9,10.9,33,30.48,10.0,SSE,12.7,-,N/A,,Clear,160,2012-01-02 20:55:00
2:55 PM,37.9,10.9,33,30.45,10.0,SE,13.8,-,N/A,,Clear,130,2012-01-02 21:55:00
3:55 PM,34.0,10.9,38,30.45,10.0,East,10.4,-,N/A,,Clear,100,2012-01-02 22:55:00
4:55 PM,27.0,10.0,49,30.42,10.0,East,9.2,-,N/A,,Clear,90,2012-01-02 23:55:00
5:55 PM,23.0,9.0,55,30.38,10.0,East,10.4,-,N/A,,Clear,100,2012-01-03 00:55:00
6:55 PM,25.0,10.0,53,30.34,10.0,ESE,9.2,-,N/A,,Clear,110,2012-01-03 01:55:00
7:55 PM,24.1,10.0,55,30.30,10.0,East,6.9,-,N/A,,Clear,80,2012-01-03 02:55:00
8:55 PM,19.9,9.0,62,30.26,10.0,East,4.6,-,N/A,,Clear,80,2012-01-03 03:55:00
9:55 PM,19.9,10.0,65,30.20,10.0,ENE,3.5,-,N/A,,Clear,70,2012-01-03 04:55:00
10:55 PM,17.1,10.0,74,30.15,10.0,Calm,Calm,-,N/A,,Clear,0,2012-01-03 05:55:00
11:55 PM,16.0,9.0,74,30.09,10.0,Calm,Calm,-,N/A,,Clear,0,2012-01-03 06:55:00